Regional Weather Roundup
Issued by NWS

Home | Current Version | Previous Version | Graphics & Text | Print | Product List | Glossary On
Versions: 1 2 3 4 5 6 7 8 9 10 11 12 13 14 15 16 17 18 19 20 21 22 23 24 25 26 27 28 29 30 31 32 33 34 35 36 37 38 39 40 41 42 43 44 45 46 47 48 49 50
000
ASUS43 KMKX 060200
RWRWI

WISCONSIN REGIONAL WEATHER ROUNDUP
NATIONAL WEATHER SERVICE MILWAUKEE/SULLIVAN WI
900 PM CDT THU MAY 05 2016

NOTE: "FAIR" INDICATES FEW OR NO CLOUDS BELOW 12,000 FEET WITH NO
SIGNIFICANT WEATHER AND/OR OBSTRUCTIONS TO VISIBILITY.

WIZ001-002-006>008-014>016-023>028-060300-
NORTHWEST WISCONSIN

CITY           SKY/WX    TMP DP  RH WIND       PRES   REMARKS
SUPERIOR ARPT  CLEAR     73  42  32 SW9       29.77S
ASHLAND        PTCLDY    66  40  38 S7        29.82F
HAYWARD        CLEAR     60  39  45 S7        29.86F
SIREN          CLEAR     67  40  36 S6        29.86S
CUMBERLAND     CLEAR     59  37  44 S7        29.88F
RICE LAKE      CLEAR     62  39  42 S5        29.90S
CHETEK         CLEAR     62  40  44 S3        29.89S
LADYSMITH      PTCLDY    61  40  44 SE3       29.91F
EAU CLAIRE     NOT AVBL
MENOMONIE      CLEAR     62  38  41 S6        29.89F
NEW RICHMOND   CLEAR     66  37  33 S6        29.89S
OSCEOLA        CLEAR     63  40  43 S6        29.89F
$$

WIZ003>005-009-010-017-018-060300-
NORTH CENTRAL WISCONSIN

CITY           SKY/WX    TMP DP  RH WIND       PRES   REMARKS
MANITOWISH WTR CLEAR     59  38  45 S3        29.89S
ARBOR VITAE    PTCLDY    62  40  44 W5        29.90F
WOODRUFF       PTCLDY    62  40  44 W5        29.90F
RHINELANDER    CLOUDY    60  38  43 CALM      29.92S
EAGLE RIVER    CLOUDY    56  36  45 SW5       29.90R
LAND O LAKES   CLOUDY    60  36  39 SW3       29.91R
PHILLIPS       PTCLDY    60  40  46 SW6       29.89F
TOMAHAWK       PTCLDY    60  38  45 CALM      29.93R
MEDFORD        PTCLDY    59  39  48 SW3       29.92F
MERRILL        DRIZZLE   59  42  52 SW8       29.92F
$$

WIZ029-030-035-036-043>047-060300-
CENTRAL WISCONSIN

CITY           SKY/WX    TMP DP  RH WIND       PRES   REMARKS
WAUSAU         PTCLDY    61  41  47 SW5       29.90F
MOSINEE        PTCLDY    57  36  44 SW3       29.94S
MARSHFIELD     PTCLDY    61  39  44 W5        29.93S
STEVENS POINT  CLEAR     54  36  49 CALM      29.93F
WAUPACA        CLEAR     58  32  37 CALM      29.93S
WAUTOMA        NOT AVBL
WISC RAPIDS    CLEAR     55  38  52 CALM      29.95R
CAMP DOUGLAS   NOT AVBL
$$

WIZ011>013-019>022-031-037>040-048>050-060300-
NORTHEAST WISCONSIN

CITY           SKY/WX    TMP DP  RH WIND       PRES   REMARKS
ANTIGO         CLEAR     53  38  56 CALM      29.93S
SHAWANO        CLEAR     63  33  32 SW5       29.91F
OCONTO         CLEAR     53  45  73 S8        29.91R
STURGEON BAY   CLEAR     46  36  66 S9        29.95S
GREEN BAY      CLEAR     57  41  55 SW5       29.92S
MANITOWOC      NOT AVBL
APPLETON       PTCLDY    54  36  50 S7        29.92S
CLINTONVILLE   CLEAR     61  32  33 SW5       29.91F
OSHKOSH        CLEAR     51  39  63 S5        29.93S
$$

WIZ032>034-041-042-053>061-060300-
SOUTHWEST WISCONSIN

CITY           SKY/WX    TMP DP  RH WIND       PRES   REMARKS
LA CROSSE      PTCLDY    63  41  44 S5        29.93F
SPARTA         CLEAR     58  41  54 CALM      29.95S
VIROQUA        PTCLDY    61  37  40 S3        29.95F
BOSCOBEL       CLEAR     56  41  57 CALM      29.96S
PRAIRIE DU CHI CLEAR     60  39  45 CALM      29.95S
PLATTEVILLE    CLEAR     61  33  35 SW3       29.97S
$$

WIZ056-057-062-063-064-067-068-060300-
SOUTH CENTRAL WISCONSIN

CITY           SKY/WX    TMP DP  RH WIND       PRES   REMARKS
REEDSBURG      CLEAR     58  36  43 CALM      29.95S
BARABOO/DELLS  CLEAR     57  34  41 CALM      29.95S
LONE ROCK      NOT AVBL
MINERAL POINT  PTCLDY    59  32  36 W3        29.97S
MADISON        PTCLDY    52  38  58 CALM      29.95S
MIDDLETON      CLEAR     55  40  57 CALM      29.97R
WATERTOWN      CLEAR     52  41  66 CALM      29.94S
MONROE         CLEAR     59  34  38 W7        29.96S
JANESVILLE     CLEAR     55  37  50 CALM      29.96S
$$

WIZ051-052-058>065-066-070>072-060300-
SOUTHEAST WISCONSIN

CITY           SKY/WX    TMP DP  RH WIND       PRES   REMARKS
MILWAUKEE      PTCLDY    49  36  61 S5        29.97S
WAUKESHA       CLEAR     48  37  66 SE5       29.97S
MILWAUKEE/TIMM NOT AVBL
RACINE         CLEAR     48  35  60 CALM      29.99S
BURLINGTON     CLEAR     51  40  67 SE3       29.97S
KENOSHA        CLEAR     45  36  70 SE3       29.97S
FOND DU LAC    CLEAR     50  41  71 SE5       29.94R
SHEBOYGAN      CLEAR     45  38  76 S7        29.96R
WEST BEND      CLEAR     50  37  62 CALM      29.96S
JUNEAU         CLEAR     56  37  47 SW3       29.95S
$$

LSZ147-162-060300-
LAKE SUPERIOR

STATION/POSITION TIME  TEMP    WIND        PRES    WAVE
                       AIR SEA DIR/SP/G            HT/PER
                 (UTC) (F)     (DEG/KT/KT) (MB)    (FT/S)
W MID LAKE BUOY  0050   43 37  150/  8/ 10 1009.9S   0
DEVILS ISLAND    0100   69     180/  7/ 10 1008.2F
SAXON HARBOR     0100   70     200/  7/ 12 1009.5F
$$

LMZ867-665-643>646-060300-
LAKE MICHIGAN

STATION/POSITION TIME  TEMP    WIND        PRES    WAVE
                       AIR SEA DIR/SP/G            HT/PER
                 (UTC) (F)     (DEG/KT/KT) (MB)    (FT/S)
CHAMBERS ISLAND  0100   54     150/  3/  8 1013.2
N MID LAKE BUOY  0050   40 39  200/  8/  8 1013.6F   0
NORTHPORT PIER   0100   49     190/  2/  7 1013.2F
ALGOMA LAKESHORE 0115          210/ 10/ 12   N/A
KEWAUNEE LAKESHO 0100   46                 1013.4S
SHEBOYGAN LAKESH 0100   46     180/  8/  9 1014.9F
PORT WASHINGTON  0100   47     200/  3/  4 1015.2F
S MID LAKE BUOY  0050   42 40  320/  2/  2 1014.7S   2/ 5
KENOSHA   LAKESH 0100   48      CALM  /  1 1014.9S
$$

TC  - TEMPERATURE IN CELSIUS
VSB - VISIBILITY IN STATUTE MILES
WCI - WIND CHILL INDEX
HX  - HEAT INDEX





USA.gov is the U.S. government's official web portal to all federal, state and local government web resources and services.